Year,Month,Day,Hour,Minute,Value (Times are PST for temperature in C)
2014,08,13,10,36,12.80
2014,08,13,10,37,12.80
2014,08,13,10,38,12.80
2014,08,13,10,39,12.90
2014,08,13,10,40,12.90
2014,08,13,10,41,12.90
2014,08,13,10,42,12.90
2014,08,13,10,43,12.90
2014,08,13,10,44,12.90
2014,08,13,10,45,12.90
2014,08,13,10,46,12.90
2014,08,13,10,47,12.90
2014,08,13,10,48,12.90
2014,08,13,10,49,12.90
2014,08,13,10,50,13.00
2014,08,13,10,51,13.00
2014,08,13,10,52,12.90
2014,08,13,10,53,12.90
2014,08,13,10,54,13.00
2014,08,13,10,55,13.00
2014,08,13,10,56,13.10
2014,08,13,10,57,13.10
2014,08,13,10,58,13.10
2014,08,13,10,59,13.10
2014,08,13,11,00,13.10
2014,08,13,11,01,13.10
2014,08,13,11,02,13.10
2014,08,13,11,03,13.10
2014,08,13,11,04,13.10
2014,08,13,11,05,13.10
2014,08,13,11,06,13.10
2014,08,13,11,07,13.00
2014,08,13,11,08,13.00
2014,08,13,11,09,13.00
2014,08,13,11,10,13.10
2014,08,13,11,11,13.10
2014,08,13,11,12,13.10
2014,08,13,11,13,13.10
2014,08,13,11,14,13.10
2014,08,13,11,15,13.20
2014,08,13,11,16,13.10
2014,08,13,11,17,13.10
2014,08,13,11,18,13.10
2014,08,13,11,19,13.10
2014,08,13,11,20,13.10
2014,08,13,11,21,13.10
2014,08,13,11,22,13.10
2014,08,13,11,23,13.10
2014,08,13,11,24,13.10
2014,08,13,11,25,13.10
2014,08,13,11,26,13.10
2014,08,13,11,27,13.10
2014,08,13,11,28,13.10
2014,08,13,11,29,13.20
2014,08,13,11,30,13.20
2014,08,13,11,31,13.20
2014,08,13,11,32,13.20
2014,08,13,11,33,13.20
2014,08,13,11,34,13.20
2014,08,13,11,35,13.20
2014,08,13,11,36,13.20
2014,08,13,11,37,13.20
2014,08,13,11,38,13.20
2014,08,13,11,39,13.20
2014,08,13,11,40,13.20
2014,08,13,11,41,13.20
2014,08,13,11,42,13.30
2014,08,13,11,43,13.30
2014,08,13,11,44,13.30
2014,08,13,11,45,13.30
2014,08,13,11,46,13.20
2014,08,13,11,47,13.20
2014,08,13,11,48,13.20
2014,08,13,11,49,13.20
2014,08,13,11,50,13.20
2014,08,13,11,51,13.20
2014,08,13,11,52,13.20
2014,08,13,11,53,13.20
2014,08,13,11,54,13.30
2014,08,13,11,55,13.30
2014,08,13,11,56,13.30
2014,08,13,11,57,13.30
2014,08,13,11,58,13.30
2014,08,13,11,59,13.30
2014,08,13,12,00,13.30
2014,08,13,12,01,13.30
2014,08,13,12,02,13.30
2014,08,13,12,03,13.30
2014,08,13,12,04,13.30
2014,08,13,12,05,13.30
2014,08,13,12,06,13.30
2014,08,13,12,07,13.30
2014,08,13,12,08,13.30
2014,08,13,12,09,13.30
2014,08,13,12,10,13.30
2014,08,13,12,11,13.30
2014,08,13,12,12,13.30
2014,08,13,12,13,13.30
2014,08,13,12,14,13.30
2014,08,13,13,21,14.10
2014,08,13,13,22,14.10
2014,08,13,13,23,14.10
2014,08,13,13,24,14.10
2014,08,13,13,25,14.20
2014,08,13,13,26,14.20
2014,08,13,13,27,14.20
2014,08,13,13,28,14.20
2014,08,13,13,29,14.20
2014,08,13,13,30,14.20
2014,08,13,13,31,14.30
2014,08,13,13,32,14.30
2014,08,13,13,33,14.30
2014,08,13,13,34,14.30
2014,08,13,13,35,14.30
2014,08,13,13,36,14.30
2014,08,13,13,37,14.30
2014,08,13,13,38,14.30
2014,08,13,13,39,14.30
2014,08,13,13,40,14.30
2014,08,13,13,41,14.30
2014,08,13,13,42,14.30
2014,08,13,13,43,14.30
2014,08,13,13,44,14.30
2014,08,13,13,45,14.30
2014,08,13,13,46,14.30
2014,08,13,13,47,14.30
2014,08,13,13,48,14.30
2014,08,13,13,49,14.30
2014,08,13,13,50,14.30
2014,08,13,13,51,14.30
2014,08,13,13,52,14.30
2014,08,13,13,53,14.20
2014,08,13,13,54,14.20
2014,08,13,13,55,14.20
2014,08,13,13,56,14.20
2014,08,13,13,57,14.20
2014,08,13,13,58,14.20
2014,08,13,13,59,14.20
2014,08,13,14,00,14.20
2014,08,13,14,01,14.20
2014,08,13,14,02,14.20
2014,08,13,14,03,14.20
2014,08,13,14,04,14.20
2014,08,13,14,05,14.20
2014,08,13,14,06,14.20
